| time (UTC) | temp F | wind direction | speed MPH | gust MPH | rain 1hr in | rain 24hr in | rain mn in | humidity % | barometer mb |
| 20260906181045 | 79 | 27 | 2.0 | 3.0 | 0.00 | 0.05 | 0.05 | 57 | 1014.4 |
| 20260906180042 | 80 | 90 | 1.0 | 3.0 | 0.00 | 0.09 | 0.05 | 57 | 1014.5 |
| 20260906175059 | 80 | 85 | 3.0 | 3.0 | 0.00 | 0.14 | 0.05 | 57 | 1014.6 |
| 20260906174035 | 80 | 45 | 2.0 | 4.0 | 0.00 | 0.14 | 0.05 | 56 | 1014.7 |
| 20260906173031 | 79 | 90 | 2.0 | 3.0 | 0.00 | 0.14 | 0.05 | 57 | 1014.7 |
| 20260906172028 | 79 | 90 | 1.0 | 4.0 | 0.00 | 0.14 | 0.05 | 57 | 1014.9 |
| 20260906171025 | 79 | 90 | 2.0 | 4.0 | 0.00 | 0.14 | 0.05 | 57 | 1014.9 |
| 20260906170042 | 78 | 90 | 1.0 | 3.0 | 0.00 | 0.14 | 0.05 | 58 | 1014.8 |
| 20260906165038 | 77 | 90 | 1.0 | 3.0 | 0.00 | 0.14 | 0.05 | 62 | 1015.1 |
| 20260906164014 | 76 | 37 | 1.0 | 3.0 | 0.00 | 0.14 | 0.05 | 65 | 1015.1 |
| 20260906163111 | 75 | 0.0 | 0.0 | 0.00 | 0.14 | 0.05 | 65 | 1015.2 | |
| 20260906162108 | 75 | 0.0 | 0.0 | 0.00 | 0.14 | 0.05 | 64 | 1015.1 | |
| 20260906161105 | 75 | 0.0 | 0.0 | 0.00 | 0.14 | 0.05 | 64 | 1015.1 | |
| 20260906155058 | 75 | 0.0 | 0.0 | 0.00 | 0.14 | 0.05 | 63 | 1015.3 | |
| 20260906154054 | 74 | 90 | 1.0 | 1.0 | 0.00 | 0.14 | 0.05 | 62 | 1015.3 |
| 20260906153051 | 75 | 0.0 | 0.0 | 0.00 | 0.14 | 0.05 | 64 | 1015.3 | |
| 20260906152048 | 75 | 90 | 0.0 | 1.0 | 0.00 | 0.14 | 0.05 | 65 | 1015.3 |
| 20260906151044 | 75 | 0.0 | 0.0 | 0.00 | 0.14 | 0.05 | 65 | 1015.3 | |
| 20260906150041 | 74 | 0.0 | 0.0 | 0.00 | 0.14 | 0.05 | 66 | 1015.5 | |
| 20260906145058 | 74 | 0.0 | 0.0 | 0.00 | 0.14 | 0.05 | 67 | 1015.3 | |
| 20260906144114 | 73 | 90 | 0.0 | 2.0 | 0.00 | 0.14 | 0.05 | 78 | 1015.4 |
| 20260906143031 | 73 | 113 | 2.0 | 3.0 | 0.00 | 0.14 | 0.05 | 83 | 1015.3 |
| 20260906142027 | 73 | 83 | 2.0 | 3.0 | 0.00 | 0.14 | 0.05 | 87 | 1015.2 |
| 20260906141024 | 73 | 90 | 0.0 | 1.0 | 0.00 | 0.14 | 0.05 | 88 | 1015.0 |
| 20260906140020 | 73 | 0.0 | 0.0 | 0.01 | 0.14 | 0.05 | 89 | 1015.1 | |
| 20260906135017 | 72 | 0.0 | 0.0 | 0.04 | 0.14 | 0.05 | 90 | 1015.1 | |
| 20260906134114 | 72 | 0.0 | 0.0 | 0.04 | 0.14 | 0.05 | 92 | 1014.9 | |
| 20260906133130 | 72 | 0.0 | 0.0 | 0.04 | 0.14 | 0.05 | 92 | 1014.8 | |
| 20260906132107 | 72 | 90 | 0.0 | 1.0 | 0.05 | 0.14 | 0.05 | 92 | 1014.9 |
| 20260906131103 | 72 | 180 | 1.0 | 2.0 | 0.05 | 0.14 | 0.05 | 93 | 1014.8 |
| 20260906130100 | 72 | 90 | 1.0 | 3.0 | 0.04 | 0.13 | 0.04 | 94 | 1015.0 |
| 20260906125057 | 72 | 0.0 | 1.0 | 0.01 | 0.11 | 0.01 | 95 | 1014.7 | |
| 20260906124053 | 72 | 68 | 1.0 | 3.0 | 0.01 | 0.11 | 0.01 | 95 | 1014.6 |
| 20260906123050 | 72 | 90 | 1.0 | 2.0 | 0.01 | 0.11 | 0.01 | 95 | 1014.4 |
| 20260906122107 | 72 | 90 | 2.0 | 4.0 | 0.00 | 0.09 | 0.00 | 95 | 1014.4 |
| 20260906121043 | 71 | 90 | 2.0 | 3.0 | 0.00 | 0.09 | 0.00 | 95 | 1014.5 |
| 20260906120039 | 71 | 41 | 2.0 | 3.0 | 0.00 | 0.09 | 0.00 | 95 | 1014.6 |
| 20260906115056 | 70 | 34 | 1.0 | 1.0 | 0.00 | 0.09 | 0.00 | 95 | 1014.3 |
| 20260906114053 | 70 | 0 | 1.0 | 2.0 | 0.00 | 0.09 | 0.00 | 95 | 1014.2 |
| 20260906113029 | 70 | 0 | 0.0 | 1.0 | 0.00 | 0.09 | 0.00 | 95 | 1013.8 |
| 20260906112026 | 69 | 0.0 | 0.0 | 0.00 | 0.09 | 0.00 | 95 | 1013.6 | |
| 20260906111023 | 69 | 0.0 | 0.0 | 0.00 | 0.09 | 0.00 | 94 | 1013.7 | |
| 20260906110019 | 69 | 0.0 | 0.0 | 0.00 | 0.09 | 0.00 | 94 | 1013.7 | |
| 20260906105016 | 70 | 90 | 1.0 | 2.0 | 0.00 | 0.09 | 0.00 | 95 | 1013.6 |
| 20260906104113 | 70 | 90 | 0.0 | 2.0 | 0.00 | 0.09 | 0.00 | 95 | 1013.6 |
| 20260906103109 | 69 | 90 | 1.0 | 2.0 | 0.00 | 0.09 | 0.00 | 93 | 1013.6 |
| 20260906102105 | 69 | 0.0 | 0.0 | 0.00 | 0.09 | 0.00 | 92 | 1013.7 | |
| 20260906101102 | 69 | 0.0 | 0.0 | 0.00 | 0.09 | 0.00 | 92 | 1013.3 | |
| 20260906100119 | 69 | 0.0 | 0.0 | 0.00 | 0.09 | 0.00 | 92 | 1013.2 | |
| 20260906095055 | 69 | 0.0 | 0.0 | 0.00 | 0.09 | 0.00 | 93 | 1013.2 | |
| 20260906094051 | 69 | 90 | 1.0 | 2.0 | 0.00 | 0.09 | 0.00 | 91 | 1013.0 |
| 20260906093108 | 69 | 74 | 1.0 | 2.0 | 0.00 | 0.09 | 0.00 | 90 | 1013.0 |
| 20260906092045 | 69 | 0.0 | 0.0 | 0.00 | 0.09 | 0.00 | 91 | 1013.0 | |
| 20260906091041 | 69 | 0.0 | 0.0 | 0.00 | 0.09 | 0.00 | 90 | 1012.8 | |
| 20260906090038 | 69 | 0.0 | 0.0 | 0.00 | 0.09 | 0.00 | 90 | 1012.9 | |
| 20260906085035 | 70 | 0.0 | 0.0 | 0.00 | 0.09 | 0.00 | 90 | 1012.7 | |
| 20260906084032 | 70 | 0.0 | 0.0 | 0.00 | 0.09 | 0.00 | 90 | 1012.8 | |
| 20260906083028 | 70 | 0.0 | 0.0 | 0.00 | 0.09 | 0.00 | 90 | 1012.6 | |
| 20260906082045 | 70 | 0.0 | 1.0 | 0.00 | 0.09 | 0.00 | 89 | 1012.5 | |
| 20260906081021 | 70 | 79 | 1.0 | 2.0 | 0.00 | 0.09 | 0.00 | 90 | 1012.3 |
| 20260906080038 | 70 | 0 | 0.0 | 1.0 | 0.00 | 0.09 | 0.00 | 91 | 1012.3 |
| 20260906075135 | 70 | 45 | 0.0 | 1.0 | 0.00 | 0.09 | 0.00 | 92 | 1012.3 |
| 20260906074111 | 70 | 0 | 1.0 | 2.0 | 0.00 | 0.09 | 0.00 | 93 | 1012.3 |
| 20260906073108 | 70 | 45 | 2.0 | 3.0 | 0.00 | 0.09 | 0.00 | 92 | 1012.3 |
| 20260906072104 | 70 | 0 | 0.0 | 1.0 | 0.00 | 0.09 | 0.00 | 92 | 1012.5 |
| 20260906071101 | 70 | 0.0 | 0.0 | 0.00 | 0.09 | 0.00 | 92 | 1012.5 | |
| 20260906070057 | 70 | 0.0 | 0.0 | 0.00 | 0.09 | 0.00 | 91 | 1012.8 | |
| 20260906065053 | 70 | 0.0 | 0.0 | 0.00 | 0.09 | 0.00 | 90 | 1012.9 | |
| 20260906064050 | 71 | 72 | 0.0 | 1.0 | 0.00 | 0.09 | 0.00 | 91 | 1012.9 |
| 20260906063107 | 71 | 270 | 0.0 | 1.0 | 0.00 | 0.09 | 0.00 | 90 | 1013.0 |
| 20260906062103 | 71 | 0.0 | 0.0 | 0.00 | 0.09 | 0.00 | 92 | 1012.9 | |
| 20260906061040 | 71 | 0.0 | 0.0 | 0.00 | 0.09 | 0.00 | 92 | 1012.9 | |
| 20260906060036 | 71 | 0.0 | 0.0 | 0.00 | 0.09 | 0.00 | 90 | 1013.1 | |
| 20260906055033 | 71 | 0.0 | 1.0 | 0.00 | 0.09 | 0.00 | 90 | 1012.9 | |
| 20260906054030 | 71 | 90 | 1.0 | 1.0 | 0.00 | 0.09 | 0.00 | 89 | 1012.8 |
| 20260906053026 | 72 | 0.0 | 0.0 | 0.00 | 0.09 | 0.00 | 90 | 1012.8 | |
| 20260906052023 | 72 | 0.0 | 0.0 | 0.00 | 0.09 | 0.00 | 89 | 1012.8 | |
| 20260906051019 | 72 | 0.0 | 0.0 | 0.00 | 0.09 | 0.00 | 88 | 1013.0 | |
| 20260906050016 | 72 | 0.0 | 0.0 | 0.00 | 0.09 | 0.00 | 87 | 1013.0 | |
| 20260906045113 | 72 | 0.0 | 0.0 | 0.00 | 0.09 | 0.00 | 87 | 1013.1 | |
| 20260906044110 | 72 | 0.0 | 0.0 | 0.00 | 0.09 | 0.00 | 88 | 1013.1 | |
| 20260906043105 | 72 | 0.0 | 0.0 | 0.00 | 0.09 | 0.00 | 88 | 1013.1 | |
| 20260906042102 | 72 | 0.0 | 0.0 | 0.00 | 0.09 | 0.00 | 87 | 1013.3 | |
| 20260906041058 | 72 | 0.0 | 0.0 | 0.00 | 0.09 | 0.00 | 86 | 1013.4 | |
| 20260906040055 | 72 | 0.0 | 0.0 | 0.00 | 0.09 | 0.00 | 86 | 1013.3 | |
| 20260906035052 | 72 | 0.0 | 0.0 | 0.00 | 0.09 | 0.09 | 83 | 1013.3 | |
| 20260906034108 | 73 | 0.0 | 0.0 | 0.00 | 0.09 | 0.09 | 82 | 1013.3 | |
| 20260906033105 | 73 | 0.0 | 0.0 | 0.00 | 0.09 | 0.09 | 80 | 1013.4 | |
| 20260906032101 | 73 | 0.0 | 0.0 | 0.00 | 0.09 | 0.09 | 77 | 1013.3 | |
| 20260906031038 | 73 | 0.0 | 0.0 | 0.00 | 0.09 | 0.09 | 77 | 1013.2 | |
| 20260906030035 | 73 | 0.0 | 0.0 | 0.00 | 0.09 | 0.09 | 77 | 1013.2 | |
| 20260906025051 | 73 | 0.0 | 0.0 | 0.00 | 0.09 | 0.09 | 76 | 1013.2 | |
| 20260906024028 | 73 | 0.0 | 0.0 | 0.00 | 0.09 | 0.09 | 77 | 1013.2 | |
| 20260906023025 | 73 | 0.0 | 0.0 | 0.00 | 0.09 | 0.09 | 75 | 1013.3 | |
| 20260906022021 | 73 | 0.0 | 0.0 | 0.00 | 0.09 | 0.09 | 73 | 1013.1 | |
| 20260906021017 | 74 | 0.0 | 0.0 | 0.00 | 0.09 | 0.09 | 71 | 1013.1 | |
| 20260906020114 | 74 | 0.0 | 0.0 | 0.00 | 0.09 | 0.09 | 69 | 1013.0 | |
| 20260906015111 | 74 | 0.0 | 0.0 | 0.00 | 0.09 | 0.09 | 68 | 1013.0 | |
| 20260906014108 | 74 | 0.0 | 0.0 | 0.00 | 0.09 | 0.09 | 67 | 1013.0 | |
| 20260906013104 | 74 | 0.0 | 0.0 | 0.00 | 0.09 | 0.09 | 67 | 1013.0 | |
| 20260906012121 | 74 | 0.0 | 0.0 | 0.00 | 0.09 | 0.09 | 66 | 1012.7 | |
| 20260906011058 | 74 | 0.0 | 0.0 | 0.00 | 0.09 | 0.09 | 66 | 1012.7 | |
| 20260906010054 | 75 | 0.0 | 0.0 | 0.00 | 0.09 | 0.09 | 65 | 1012.7 | |
| 20260906005051 | 75 | 0.0 | 0.0 | 0.00 | 0.09 | 0.09 | 65 | 1012.6 | |
| 20260906004048 | 75 | 0.0 | 0.0 | 0.00 | 0.09 | 0.09 | 65 | 1012.5 | |
| 20260906003044 | 76 | 0.0 | 0.0 | 0.00 | 0.09 | 0.09 | 65 | 1012.2 | |
| 20260906002041 | 76 | 0.0 | 0.0 | 0.00 | 0.09 | 0.09 | 65 | 1012.1 | |
| 20260906001037 | 76 | 0.0 | 0.0 | 0.00 | 0.09 | 0.09 | 63 | 1012.1 | |
| 20260906000034 | 77 | 0.0 | 0.0 | 0.00 | 0.09 | 0.09 | 63 | 1012.0 | |
| 20260905235030 | 77 | 0.0 | 0.0 | 0.00 | 0.09 | 0.09 | 62 | 1012.1 | |
| 20260905234027 | 77 | 0.0 | 0.0 | 0.00 | 0.09 | 0.09 | 62 | 1012.0 | |
| 20260905233023 | 77 | 0.0 | 0.0 | 0.00 | 0.09 | 0.09 | 61 | 1012.1 | |
| 20260905232020 | 78 | 0.0 | 0.0 | 0.00 | 0.09 | 0.09 | 60 | 1012.1 | |
| 20260905231017 | 78 | 0.0 | 0.0 | 0.00 | 0.09 | 0.09 | 60 | 1011.8 | |
| 20260905230113 | 78 | 0.0 | 0.0 | 0.00 | 0.09 | 0.09 | 60 | 1011.8 | |
| 20260905225110 | 78 | 0.0 | 0.0 | 0.00 | 0.09 | 0.09 | 59 | 1012.1 | |
| 20260905224106 | 78 | 0.0 | 0.0 | 0.00 | 0.09 | 0.09 | 59 | 1012.1 | |
| 20260905223103 | 78 | 0.0 | 0.0 | 0.00 | 0.09 | 0.09 | 59 | 1012.0 | |
| 20260905222100 | 78 | 0.0 | 0.0 | 0.00 | 0.09 | 0.09 | 59 | 1012.1 | |
| 20260905221056 | 78 | 0.0 | 0.0 | 0.00 | 0.09 | 0.09 | 59 | 1012.0 | |
| 20260905220053 | 78 | 0.0 | 0.0 | 0.00 | 0.09 | 0.09 | 60 | 1012.1 | |
| 20260905215050 | 77 | 0.0 | 0.0 | 0.00 | 0.09 | 0.09 | 59 | 1012.2 | |
| 20260905214046 | 77 | 0.0 | 0.0 | 0.00 | 0.09 | 0.09 | 61 | 1012.2 | |
| 20260905213102 | 77 | 0.0 | 0.0 | 0.00 | 0.09 | 0.09 | 61 | 1012.2 | |
| 20260905212039 | 76 | 0.0 | 0.0 | 0.00 | 0.09 | 0.09 | 61 | 1012.4 | |
| 20260905211035 | 76 | 270 | 0.0 | 1.0 | 0.00 | 0.09 | 0.09 | 62 | 1012.6 |
| 20260905210032 | 76 | 0.0 | 0.0 | 0.00 | 0.09 | 0.09 | 63 | 1012.5 | |
| 20260905205029 | 76 | 0.0 | 0.0 | 0.00 | 0.09 | 0.09 | 63 | 1012.5 | |
| 20260905204025 | 75 | 0.0 | 1.0 | 0.00 | 0.09 | 0.09 | 63 | 1012.5 | |
| 20260905203022 | 75 | 270 | 1.0 | 1.0 | 0.00 | 0.09 | 0.09 | 64 | 1012.6 |
| 20260905202038 | 75 | 270 | 0.0 | 1.0 | 0.00 | 0.09 | 0.09 | 65 | 1012.5 |
| 20260905201015 | 76 | 0.0 | 0.0 | 0.00 | 0.09 | 0.09 | 66 | 1012.6 | |
| 20260905200112 | 76 | 0.0 | 0.0 | 0.00 | 0.09 | 0.09 | 70 | 1012.3 | |
| 20260905195129 | 75 | 0.0 | 0.0 | 0.00 | 0.09 | 0.09 | 75 | 1012.4 | |
| 20260905194105 | 74 | 0.0 | 0.0 | 0.00 | 0.09 | 0.09 | 78 | 1012.6 | |
| 20260905193122 | 74 | 0.0 | 0.0 | 0.00 | 0.09 | 0.09 | 80 | 1013.0 | |
| 20260905192058 | 74 | 120 | 1.0 | 2.0 | 0.00 | 0.09 | 0.09 | 80 | 1013.1 |
| 20260905191054 | 73 | 35 | 1.0 | 3.0 | 0.00 | 0.09 | 0.09 | 74 | 1013.1 |
| 20260905190051 | 73 | 270 | 0.0 | 2.0 | 0.05 | 0.09 | 0.09 | 70 | 1012.1 |
| 20260905185048 | 72 | 0.0 | 0.0 | 0.09 | 0.09 | 0.09 | 69 | 1011.3 | |
| 20260905184104 | 73 | 90 | 0.0 | 1.0 | 0.09 | 0.09 | 0.09 | 67 | 1011.7 |
| 20260905183040 | 73 | 270 | 0.0 | 1.0 | 0.09 | 0.09 | 0.09 | 67 | 1012.7 |
| 20260905182037 | 74 | 252 | 0.0 | 1.0 | 0.09 | 0.09 | 0.09 | 66 | 1013.2 |